Jose Marti International Airport

Airport
ICAO code: 
MUHA
IATA Code: 
HAV
Summary
ICAO Region: 
CARSAM
Territory: 
Location: 
Boyeros, Havana
Serving: 
Havana
Elevation: 
210 ft
Coordinates: 
Aerial View: 
22° 59' 23.366" N, 82° 24' 29.841" W
Airport WX: 
Tropical Revolving Storm
Metar
Observation
MUHA 251250Z 12007KT 090V150 9000 FEW030 27/23 Q1016
Station
Aeropuerto Jose Marti, Rancho-Boyeros, Habana
Date/Time
2022-05-25 12:50:00
Wind direction
120°
Wind speed
07 kts
Lowest cloud amount
few clouds
Temperature
27°C
Dew point
23°C
Humidity
78%
QNH
1016 hPa
Weather condition
n/a

José Martí International Airport, previously called El Rancho Boyeros International Airport, is located 15 km southwest of Havana, Cuba, and is a hub for Cubana de Aviación, Aerogaviota and Aerocaribbean. The airport lies in the municipality of Boyeros.

Climatology

Tropical Savanna climate (Köppen climate classification Aw)

Runways

Designator Length Width Surface Rops
6/24 4000 45 ASP Yes/Yes
Airport map: 
Aerial View: 

SKYbrary Partners:

Safety knowledge contributed by: